ハートレー第3彗星

110P/Hartley 3 (2021)

English version
Home page
Updated on June 11, 2023

---------------------------------------------------------------------

・ プロフィール

・ 写真集

・ 軌道要素

Epoch 2023 Feb. 25.0 TT = JDT 2460000.5
T 2021 Oct. 18.39042 TT                                 Rudenko
q   2.4553043            (2000.0)            P               Q
n   0.14406339     Peri.  167.46414     -0.09113778     -0.97686617
a   3.6038521      Node   287.51735     +0.89525512     +0.00470897
e   0.3187001      Incl.   11.70465     +0.43613321     -0.21379970
P   6.84
>From 2608 observations 2013 Aug. 11-2023 May 13.

・ 星図

・ 光度変化

        m1 =  11.0 + 5 logΔ +  13.0 log r  [    ,-140]  (              〜2021年 5月31日)
        m1 = -25.2 + 5 logΔ + 100   log r  [-140,   0]  (2021年 5月31日〜2021年10月18日)
        m1 =   0.2 + 5 logΔ +  35   log r  [   0,    ]  (2021年10月18日〜              )

---------------------------------------------------------------------

軌道要素はM.P.E.C. 2023-K136に掲載されたものです。
星図はステラナビゲータ Ver.10 (アストロアーツ) で作成したものです。
光度グラフはComet for Windowsで作成したものです。

---------------------------------------------------------------------

Copyright(C) Seiichi Yoshida (comet@aerith.net). All rights reserved.